Miscellaneous Local Product
Issued by NWS Hastings, NE

Home | Current Version | Previous Version | Text Only | Print | Product List | Glossary Off
Versions: 1 2 3 4 5 6 7 8 9 10 11 12 13 14 15 16 17 18 19 20 21 22 23 24 25 26 27 28 29 30 31 32 33 34 35 36 37 38 39 40 41 42 43 44 45 46 47 48 49 50

000
AXUS43 KGID 241602
MISGRI

GID CWA HOURLY WEATHER ROUNDUP
NATIONAL WEATHER SERVICE HASTINGS NE
1000 AM CST WED DEC 24 2014

NOTE: "FAIR" INDICATES FEW OR NO CLOUDS BELOW 12,000 FEET WITH NO
SIGNIFICANT WEATHER AND/OR OBSTRUCTIONS TO VISIBILITY.

...SOUTH CENTRAL NEBRASKA...

CITY           SKY/WX    TMP DP  RH WIND       PRES   REMARKS
GRAND ISLAND   CLOUDY    28  23  81 W9        29.91F WCI  19
HASTINGS       CLOUDY    27  22  81 NW8       29.90F WCI  19
KEARNEY        SUNNY     27  19  74 W10       29.91F WCI  17
ORD            SUNNY     24  18  77 NW7       29.88F WCI  16
YORK           CLOUDY    28  27  93 N9        29.91F WCI  20
AURORA         CLOUDY    29  26  88 NW8       29.90F WCI  21
LEXINGTON      SUNNY     26  20  80 NW10      29.91F WCI  15
HOLDREGE       SUNNY     25  20  79 W9        29.92S WCI  16
HEBRON         CLOUDY    29  25  86 NW9       29.93S WCI  20

...NEBRASKA PANHANDLE...

CITY           SKY/WX    TMP DP  RH WIND       PRES   REMARKS
CHADRON        MOSUNNY   20  13  74 SW8       29.77F WCI  10
ALLIANCE       SUNNY     18  14  84 W7        29.79F WCI   9
SCOTTSBLUFF    SUNNY     17  11  77 CALM      29.83F
SIDNEY         MOSUNNY   26  13  57 SW12      29.84F WCI  16

...WESTERN AND NORTH CENTRAL NEBRASKA...

CITY           SKY/WX    TMP DP  RH WIND       PRES   REMARKS
VALENTINE      SUNNY     18  13  80 SW7       29.83F WCI   9
AINSWORTH      SUNNY     21  16  79 W6        29.84F WCI  14
ONEILL         CLOUDY    26  26  98 NW5       29.87F WCI  21
BROKEN BOW     SUNNY     25  19  78 W5        29.87F WCI  19
IMPERIAL       MOSUNNY   20  11  68 W12       29.91F WCI   8
NORTH PLATTE   SUNNY     22  17  81 W8        29.90F WCI  12
MCCOOK         SUNNY     23  15  71 SW8       29.94F WCI  14

...EASTERN NEBRASKA...

CITY           SKY/WX    TMP DP  RH WIND       PRES   REMARKS
NORFOLK        CLOUDY    26  24  92 NW10      29.88F WCI  16
SO SIOUX CITY  CLOUDY    30  27  88 NW14      29.88S WCI  19
TEKAMAH        CLOUDY    31  29  92 NW14      29.89R WCI  21
COLUMBUS       CLOUDY    27  19  74 NW14      29.91S WCI  15
ALBION         CLOUDY    27  24  85 NW12      29.88F WCI  17
OMAHA EPPLEY   CLOUDY    32  30  92 NW13      29.89R WCI  22
OFFUTT AFB     CLOUDY    32  30  93 NW8       29.88R WCI  25
MILLARD        CLOUDY    32  29  89 NW12      29.89R WCI  23
LINCOLN        CLOUDY    31  27  85 NW15      29.92R WCI  20
NEBRASKA CITY  CLOUDY    32  32 100 NW15      29.88R WCI  22
BEATRICE       CLOUDY    31  28  89 NW12      29.91S WCI  22
FALLS CITY     CLOUDY    34  34 100 NW12      29.88R WCI  25

...NORTHERN KANSAS...

CITY           SKY/WX    TMP DP  RH WIND       PRES   REMARKS
GOODLAND       SUNNY     24  13  62 W10       29.94S WCI  14
HILL CITY      SUNNY     29  19  66 W13       29.98S WCI  19
NORTON         SUNNY     28  18  64 W12       29.95F WCI  18
PHILLIPSBURG   SUNNY     32  23  69 W13       29.96S WCI  22
SMITH CENTER   SUNNY     28  21  74 NW7       29.96S WCI  21
BELOIT         CLOUDY    32  27  80 W9        29.95F WCI  24
HAYS           SUNNY     30  16  55 NW8       29.97S WCI  23
RUSSELL        SUNNY     31  23  72 NW10      29.96S WCI  22
CONCORDIA      CLOUDY    29  26  89 NW10      29.95R WCI  20
SALINA         CLOUDY    33  27  78 NW10      29.98R WCI  25
TOPEKA         CLOUDY    36  31  82 NW14G21   29.91R WCI  27



USA.gov is the U.S. government's official web portal to all federal, state and local government web resources and services.